Weather reports worldwide

Advertisment
Potsdam, Germany (10379): temperature & dewpoint: 12.10.2018 03:00:00 - 18.10.2018 03:00:00 (CEST)Potsdam, Germany (10379): temperature 5cm & temperature -5cm: 12.10.2018 03:00:00 - 18.10.2018 03:00:00 (CEST)Potsdam, Germany (10379): temperature -20cm & temperature -100cm: 12.10.2018 03:00:00 - 18.10.2018 03:00:00 (CEST)Potsdam, Germany (10379): wind speed & gusts: 12.10.2018 03:00:00 - 18.10.2018 03:00:00 (CEST)Potsdam, Germany (10379): wind direction: 12.10.2018 03:00:00 - 18.10.2018 03:00:00 (CEST)Potsdam, Germany (10379): reduced air pressure: 12.10.2018 03:00:00 - 18.10.2018 03:00:00 (CEST)Potsdam, Germany (10379): visibility: 12.10.2018 03:00:00 - 18.10.2018 03:00:00 (CEST)Potsdam, Germany (10379): sunshine duration: 12.10.2018 03:00:00 - 18.10.2018 03:00:00 (CEST)Potsdam, Germany (10379): precipitation: 12.10.2018 03:00:00 - 18.10.2018 03:00:00 (CEST)
Date & Time tt [°C] td [°C] tt 5cm [°C] tt -5cm [°C] tt -20cm [°C] tt -100cm [°C] ff [km/h] ff [kn] fx [km/h] fx [kn] dd ppp [hPa] vv [km] sd [min] rr [mm]
18.10.2018 03:00:00 10,7 8,5 6,5 9,3 11,6 13,9 8 4 9 5 WNW 1019,7 16 0 0,0
18.10.2018 02:00:00 11,0 8,9 6,2 9,6 11,8 13,9 2 1 4 2 S 1019,5 18 0 0,0
18.10.2018 01:00:00 11,3 8,6 6,6 9,9 12,0 13,9 3 1 10 6 S 1019,7 18 0 0,0
18.10.2018 00:00:00 12,5 9,1 7,7 10,3 12,2 13,9 9 5 13 7 SE 1019,6 20 0 0,0
17.10.2018 23:00:00 13,4 9,1 8,5 10,6 12,5 13,9 7 4 10 5 SE 1019,7 20 0 0,0
17.10.2018 22:00:00 12,9 9,0 8,2 11,1 12,7 13,9 6 4 13 7 SE 1019,8 20 0 0,0
17.10.2018 21:00:00 14,0 9,4 8,8 11,5 12,9 13,9 14 7 17 9 ESE 1019,3 20 0 0,0
17.10.2018 20:00:00 15,2 9,4 9,6 12,1 13,1 13,9 14 7 16 8 ESE 1019,3 18 0 0,0
17.10.2018 19:00:00 15,9 9,4 9,9 12,9 13,3 13,9 9 5 11 6 E 1019,1 12 0 0,0
17.10.2018 18:00:00 17,0 9,1 11,9 13,8 13,3 13,9 7 4 9 5 ESE 1018,7 16 40 0,0
17.10.2018 17:00:00 18,9 8,5 14,8 14,6 13,2 13,9 4 2 9 5 E 1018,5 20 60 0,0
17.10.2018 16:00:00 19,8 8,1 18,4 15,2 12,9 13,9 5 3 11 6 SSE 1018,4 22 60 0,0
17.10.2018 15:00:00 19,7 7,5 18,6 15,9 12,4 13,9 4 2 12 7 SE 1018,6 22 60 0,0
17.10.2018 14:00:00 20,2 7,5 20,6 16,0 11,8 13,9 6 3 14 8 ESE 1019,0 18 60 0,0
17.10.2018 13:00:00 18,8 8,0 19,0 14,7 11,1 14,0 7 4 15 8 E 1019,2 15 60 0,0
17.10.2018 12:00:00 17,5 8,0 17,4 11,5 10,8 14,0 4 2 10 5 SE 1019,7 15 60 0,0
17.10.2018 11:00:00 14,2 7,7 11,0 9,6 10,8 14,0 2 1 6 4 WSW 1019,8 15 60 0,0
17.10.2018 10:00:00 10,4 7,2 8,6 9,0 10,8 14,0 4 2 12 7 SSE 1020,0 14 60 0,0
17.10.2018 09:00:00 8,5 6,5 6,7 8,7 11,0 14,0 10 6 14 7 SSE 1020,0 13 38 0,0
17.10.2018 08:00:00 8,9 6,8 7,1 8,6 11,2 14,0 7 4 9 5 SSE 1019,7 13 0 0,0
17.10.2018 07:00:00 9,8 7,5 6,8 8,9 11,4 14,0 7 4 11 6 SE 1019,3 15 0 0,0
17.10.2018 06:00:00 10,2 7,3 5,8 9,2 11,6 14,0 8 4 9 5 S 1019,1 22 0 0,0
17.10.2018 05:00:00 10,5 7,4 6,3 9,5 11,8 14,0 6 3 8 4 SE 1019,0 22 0 0,0
17.10.2018 04:00:00 10,6 7,3 6,4 9,8 12,0 14,0 8 4 12 6 S 1019,1 22 0 0,0
17.10.2018 03:00:00 11,3 7,4 6,7 10,2 12,2 14,0 8 4 13 7 SSE 1019,3 24 0 0,0
17.10.2018 02:00:00 13,5 7,5 8,4 10,6 12,5 14,0 8 4 14 7 SE 1019,3 26 0 0,0
17.10.2018 01:00:00 13,6 7,5 8,2 11,0 12,7 14,0 8 5 16 8 SE 1019,4 26 0 0,0
17.10.2018 00:00:00 14,0 7,6 9,3 11,3 12,9 14,0 11 6 14 8 SE 1019,4 26 0 0,0
16.10.2018 23:00:00 13,8 7,2 8,9 11,9 13,1 14,0 10 5 14 8 ESE 1019,4 30 0 0,0
16.10.2018 22:00:00 15,2 7,5 10,9 12,6 13,2 14,0 11 6 13 7 ESE 1019,4 30 0 0,0
16.10.2018 21:00:00 15,8 7,5 13,7 13,0 13,3 14,0 8 4 11 6 SE 1019,5 30 0 0,0
16.10.2018 20:00:00 16,1 7,7 12,9 13,2 13,5 14,0 8 5 10 6 ESE 1019,4 30 0 0,0
16.10.2018 19:00:00 16,2 7,8 11,6 13,7 13,6 14,0 9 5 11 6 E 1019,0 30 0 0,0
16.10.2018 18:00:00 16,9 7,9 12,6 14,6 13,6 14,0 11 6 13 7 ESE 1018,6 28 0 0,0
16.10.2018 17:00:00 19,3 7,9 17,3 15,4 13,4 14,0 4 2 9 5 NE 1018,2 28 7 0,0
16.10.2018 16:00:00 20,5 6,5 17,9 16,0 13,0 14,0 3 2 8 5 NNE 1018,2 30 52 0,0
16.10.2018 15:00:00 20,2 6,6 19,1 16,1 12,5 14,0 4 2 11 6 E 1018,2 35 49 0,0
16.10.2018 14:00:00 20,3 6,4 20,5 16,0 11,8 14,0 6 3 14 8 ENE 1018,3 30 60 0,0
16.10.2018 13:00:00 19,6 6,3 19,4 14,6 11,1 14,0 3 2 13 7 ESE 1018,2 30 56 0,0
16.10.2018 12:00:00 17,5 6,9 18,0 11,6 10,8 14,1 7 4 12 7 ESE 1018,5 28 60 0,0
16.10.2018 11:00:00 15,1 6,2 13,3 9,8 10,8 14,1 3 2 10 5 S 1018,4 28 60 0,0
16.10.2018 10:00:00 11,7 6,5 10,3 9,2 10,8 14,1 6 3 18 10 SSE 1018,2 25 60 0,0
16.10.2018 09:00:00 9,9 5,5 8,8 8,9 10,9 14,1 13 7 21 11 SE 1018,2 25 41 0,0
16.10.2018 08:00:00 9,6 5,1 8,3 8,9 11,1 14,1 16 9 18 10 ESE 1017,8 25 0 0,0
16.10.2018 07:00:00 9,1 5,1 6,0 8,9 11,2 14,1 7 4 23 13 S 1017,5 30 0 0,0
16.10.2018 06:00:00 10,1 5,2 8,3 9,1 11,4 14,1 15 8 23 12 SSE 1017,1 28 0 0,0
16.10.2018 05:00:00 9,5 4,9 8,1 9,3 11,6 14,1 16 8 21 12 SE 1017,0 28 0 0,0
16.10.2018 04:00:00 10,7 5,3 9,0 9,5 11,8 14,1 12 7 21 12 SSE 1016,9 28 0 0,0
16.10.2018 03:00:00 10,1 4,8 7,5 9,8 12,0 14,1 13 7 23 12 SE 1017,0 30 0 0,0
16.10.2018 02:00:00 10,8 4,8 9,3 10,2 12,3 14,1 13 7 21 11 SE 1016,7 30 0 0,0
16.10.2018 01:00:00 12,5 4,8 8,7 10,6 12,5 14,1 15 8 29 15 SSE 1016,6 30 0 0,0
16.10.2018 00:00:00 12,8 4,7 9,9 10,9 12,7 14,1 14 8 24 13 SE 1016,8 30 0 0,0
15.10.2018 23:00:00 13,0 4,7 9,3 11,2 12,9 14,1 15 8 24 13 SE 1016,8 28 0 0,0
15.10.2018 22:00:00 13,3 5,1 9,1 11,7 13,1 14,1 17 9 22 12 ESE 1016,7 26 0 0,0
15.10.2018 21:00:00 14,3 5,3 12,1 12,4 13,3 14,1 16 8 20 11 ESE 1016,5 26 0 0,0
15.10.2018 20:00:00 15,3 5,3 12,6 12,8 13,5 14,1 13 7 21 11 ESE 1016,3 26 0 0,0
15.10.2018 19:00:00 16,5 5,4 11,9 13,6 13,6 14,1 9 5 17 9 SE 1016,0 26 3 0,0
15.10.2018 18:00:00 18,0 5,9 14,5 14,4 13,6 14,1 11 6 21 11 SE 1015,5 30 39 0,0
15.10.2018 17:00:00 19,3 5,5 16,7 15,1 13,5 14,1 10 6 22 12 SE 1015,4 35 38 0,0
15.10.2018 16:00:00 21,3 5,3 19,0 15,9 13,1 14,1 9 5 29 15 SE 1015,3 30 60 0,0
15.10.2018 15:00:00 21,5 5,3 21,3 16,1 12,6 14,1 13 7 23 13 ESE 1015,3 30 36 0,0
15.10.2018 14:00:00 21,0 5,1 20,2 15,8 12,0 14,1 11 6 21 12 SSE 1015,3 35 33 0,0
15.10.2018 13:00:00 20,9 5,2 21,1 15,3 11,3 14,1 10 6 21 11 SSE 1015,4 35 60 0,0
15.10.2018 12:00:00 19,6 4,9 19,9 11,6 11,0 14,1 14 8 25 14 S 1015,7 30 60 0,0
15.10.2018 11:00:00 16,4 4,8 13,9 9,6 10,9 14,1 11 6 23 13 SSE 1015,8 30 60 0,0
15.10.2018 10:00:00 12,0 5,0 10,2 9,0 11,0 14,1 11 6 21 11 SE 1015,9 28 60 0,0
15.10.2018 09:00:00 10,0 4,5 8,3 8,8 11,2 14,1 14 8 23 13 ESE 1015,4 28 32 0,0
15.10.2018 08:00:00 9,9 4,2 7,5 8,8 11,4 14,1 18 10 21 12 ESE 1015,1 28 0 0,0
15.10.2018 07:00:00 9,9 4,5 8,1 9,0 11,6 14,1 14 8 23 12 SE 1014,9 30 0 0,0
15.10.2018 06:00:00 10,1 4,6 8,1 9,3 11,8 14,1 14 8 25 14 SE 1014,9 35 0 0,0
15.10.2018 05:00:00 10,6 4,8 8,8 9,6 12,0 14,1 15 8 25 14 SE 1014,9 35 0 0,0
15.10.2018 04:00:00 11,1 5,1 9,0 10,0 12,2 14,1 16 9 27 14 ESE 1014,9 35 0 0,0
15.10.2018 03:00:00 11,9 5,4 9,7 10,3 12,4 14,1 14 8 29 16 SE 1015,0 35 0 0,0
15.10.2018 02:00:00 13,5 5,4 10,5 10,6 12,6 14,1 17 9 30 16 SE 1014,6 35 0 0,0
15.10.2018 01:00:00 13,8 6,0 11,2 10,9 12,9 14,1 16 9 29 16 SE 1014,5 35 0 0,0
15.10.2018 00:00:00 13,7 6,8 11,0 11,4 13,1 14,1 17 9 28 15 SE 1014,5 35 0 0,0
14.10.2018 23:00:00 15,6 7,0 12,5 11,7 13,3 14,1 16 9 31 17 SE 1014,4 35 0 0,0
14.10.2018 22:00:00 15,7 7,1 12,2 12,1 13,5 14,2 16 9 29 16 SE 1014,3 35 0 0,0
14.10.2018 21:00:00 16,5 7,5 11,9 12,6 13,8 14,2 16 9 27 15 SE 1014,4 35 0 0,0
14.10.2018 20:00:00 17,0 7,6 11,6 13,2 14,0 14,2 15 8 22 12 SE 1014,4 35 0 0,0
14.10.2018 19:00:00 17,8 7,5 11,6 14,1 14,1 14,2 12 7 24 13 SE 1014,3 30 5 0,0
14.10.2018 18:00:00 20,8 7,0 16,9 15,1 14,1 14,2 15 8 29 16 SE 1014,1 30 60 0,0
14.10.2018 17:00:00 22,4 6,5 19,9 15,9 14,0 14,2 14 7 37 20 SE 1014,2 35 60 0,0
14.10.2018 16:00:00 23,1 6,4 20,7 16,5 13,6 14,2 18 10 36 19 SSE 1014,2 35 60 0,0
14.10.2018 15:00:00 23,1 6,5 21,8 17,2 13,0 14,2 18 10 39 21 SE 1014,4 35 60 0,0
14.10.2018 14:00:00 22,5 6,9 23,0 17,2 12,2 14,1 16 9 35 19 SSE 1015,1 35 60 0,0
14.10.2018 13:00:00 21,6 7,7 21,8 15,8 11,5 14,1 14 7 34 18 SE 1015,6 35 60 0,0
14.10.2018 12:00:00 18,9 8,2 19,4 11,9 11,1 14,2 12 6 28 15 SE 1016,1 30 60 0,0
14.10.2018 11:00:00 16,3 8,0 14,6 9,8 11,1 14,2 15 8 27 15 SSE 1016,4 30 60 0,0
14.10.2018 10:00:00 12,7 8,3 11,0 9,1 11,2 14,2 15 8 27 15 ESE 1016,9 28 60 0,0
14.10.2018 09:00:00 9,9 7,5 8,1 8,9 11,4 14,1 16 9 24 13 ESE 1017,1 22 57 0,0
14.10.2018 08:00:00 9,8 7,2 7,5 8,9 11,5 14,1 16 9 29 16 ESE 1017,1 18 0 0,0
14.10.2018 07:00:00 10,4 7,5 8,4 9,1 11,8 14,1 19 10 31 17 SE 1017,2 23 0 0,0
14.10.2018 06:00:00 10,4 7,5 7,0 9,3 12,0 14,1 22 12 32 18 ESE 1017,6 28 0 0,0
14.10.2018 05:00:00 10,7 7,7 7,9 9,6 12,2 14,1 20 11 29 16 ESE 1018,3 28 0 0,0
14.10.2018 04:00:00 11,4 7,8 7,5 9,9 12,5 14,1 21 11 29 15 ESE 1018,7 28 0 0,0
14.10.2018 03:00:00 11,8 8,0 7,9 10,2 12,7 14,1 18 10 26 14 ESE 1019,4 28 0 0,0
14.10.2018 02:00:00 12,4 8,0 8,2 10,7 13,0 14,1 17 9 26 14 ESE 1019,8 28 0 0,0
14.10.2018 01:00:00 12,8 8,4 9,0 11,1 13,3 14,1 16 9 25 13 ESE 1020,4 28 0 0,0
14.10.2018 00:00:00 13,5 8,3 9,0 11,5 13,6 14,1 18 10 27 14 ESE 1020,6 30 0 0,0
13.10.2018 23:00:00 14,1 8,1 9,5 12,0 13,9 14,1 18 10 26 14 ESE 1020,9 35 0 0,0
13.10.2018 22:00:00 14,9 8,1 10,6 12,5 14,2 14,1 19 10 27 15 ESE 1021,0 30 0 0,0
13.10.2018 21:00:00 16,0 8,3 11,8 13,1 14,5 14,1 16 9 25 13 SE 1021,2 30 0 0,0
13.10.2018 20:00:00 16,5 8,7 12,0 13,9 14,8 14,1 16 9 24 13 ESE 1021,6 30 0 0,0
13.10.2018 19:00:00 17,7 8,7 12,1 14,9 15,0 14,1 15 8 21 11 ESE 1021,5 32 14 0,0
13.10.2018 18:00:00 20,3 8,2 15,1 16,1 15,0 14,1 12 7 24 13 ESE 1021,7 35 60 0,0
13.10.2018 17:00:00 23,3 7,8 19,7 17,1 14,9 14,1 12 6 27 14 SE 1022,0 40 60 0,0
13.10.2018 16:00:00 24,8 8,1 22,5 18,0 14,5 14,1 13 7 24 13 SE 1022,2 35 60 0,0
13.10.2018 15:00:00 25,1 8,8 23,6 18,8 13,9 14,1 13 7 30 16 SSE 1022,7 35 60 0,0
13.10.2018 14:00:00 25,1 9,4 25,6 18,9 13,1 14,1 12 7 23 13 SE 1023,1 30 60 0,0
13.10.2018 13:00:00 23,7 9,8 24,3 17,4 12,2 14,1 9 5 22 12 SE 1023,9 26 60 0,0
13.10.2018 12:00:00 21,7 9,5 21,9 13,4 11,8 14,1 6 3 20 11 SSE 1024,5 24 60 0,0
13.10.2018 11:00:00 18,4 9,5 15,8 11,1 11,8 14,1 10 5 21 12 SSE 1024,6 24 60 0,0
13.10.2018 10:00:00 14,1 9,5 12,1 10,6 11,8 14,1 14 8 24 13 SSE 1025,1 24 60 0,0
13.10.2018 09:00:00 11,6 8,8 10,4 10,2 12,0 14,1 15 8 26 14 S 1025,2 24 60 0,0
13.10.2018 08:00:00 10,5 8,6 8,6 10,2 12,1 14,0 13 7 24 13 S 1025,1 22 4 0,0
13.10.2018 07:00:00 10,5 8,6 9,3 10,4 12,3 14,0 13 7 21 11 SSE 1024,9 30 0 0,0
13.10.2018 06:00:00 11,1 8,9 9,9 10,6 12,5 14,0 15 8 21 12 S 1024,7 35 0 0,0
13.10.2018 05:00:00 11,6 9,2 9,6 10,9 12,7 14,0 14 7 19 11 SSE 1024,6 40 0 0,0
13.10.2018 04:00:00 12,5 9,3 10,8 11,2 12,8 14,0 17 9 23 12 SSE 1024,5 40 0 0,0
13.10.2018 03:00:00 13,0 9,6 11,2 11,5 13,0 14,0 15 8 22 12 SSE 1024,3 40 0 0,0
13.10.2018 02:00:00 13,5 9,6 11,7 11,8 13,2 14,0 14 7 21 11 SSE 1024,5 40 0 0,0
13.10.2018 01:00:00 15,0 9,7 11,4 12,1 13,4 14,0 15 8 22 12 S 1024,3 40 0 0,0
13.10.2018 00:00:00 15,5 9,7 12,4 12,5 13,6 14,0 13 7 26 14 S 1024,2 40 0 0,0
12.10.2018 23:00:00 16,5 9,8 13,2 12,9 13,8 14,0 15 8 26 14 S 1024,2 40 0 0,0
12.10.2018 22:00:00 19,0 9,5 14,0 13,1 14,0 14,0 17 9 23 13 S 1024,2 40 0 0,0
12.10.2018 21:00:00 18,9 9,6 13,1 13,6 14,2 14,0 15 8 24 13 S 1024,1 40 0 0,0
12.10.2018 20:00:00 19,4 9,8 14,3 14,2 14,4 14,0 16 9 24 13 SSE 1023,8 40 0 0,0
12.10.2018 19:00:00 20,1 9,9 14,2 14,9 14,5 14,0 11 6 18 10 SSE 1023,3 35 14 0,0
12.10.2018 18:00:00 21,4 9,8 15,9 15,9 14,5 14,0 8 5 18 10 SSE 1022,7 35 60 0,0
12.10.2018 17:00:00 23,5 9,6 19,7 16,7 14,3 14,0 7 4 17 9 SSE 1022,6 35 60 0,0
12.10.2018 16:00:00 24,7 9,0 22,2 17,4 14,0 14,0 8 4 15 8 SE 1022,5 35 60 0,0
12.10.2018 15:00:00 24,9 8,4 22,8 18,3 13,3 14,0 6 3 18 10 SE 1022,2 35 60 0,0
12.10.2018 14:00:00 24,1 8,5 24,6 18,3 12,4 14,0 8 4 16 9 S 1022,5 35 60 0,0
12.10.2018 13:00:00 22,7 9,5 23,1 16,7 11,5 14,0 7 4 17 9 ESE 1022,3 35 60 0,0
12.10.2018 12:00:00 20,5 8,7 20,7 12,7 11,1 14,0 6 4 15 8 S 1022,7 35 60 0,0
12.10.2018 11:00:00 17,6 9,0 15,5 10,4 11,0 14,0 10 5 23 12 S 1022,4 30 60 0,0
12.10.2018 10:00:00 14,4 9,0 12,2 9,5 11,1 14,0 12 7 22 12 SSE 1021,6 29 60 0,0
12.10.2018 09:00:00 11,3 8,5 9,2 9,1 11,2 14,0 14 8 25 13 SE 1021,2 27 60 0,0
12.10.2018 08:00:00 11,1 8,4 9,1 9,1 11,4 14,0 13 7 25 14 SSE 1020,7 22 4 0,0
12.10.2018 07:00:00 10,4 8,0 8,9 9,3 11,6 14,0 18 10 26 14 SE 1020,0 30 0 0,0
12.10.2018 06:00:00 10,8 8,1 9,1 9,5 11,7 14,0 16 9 25 14 SE 1019,6 30 0 0,0
12.10.2018 05:00:00 11,4 8,0 9,4 9,8 11,9 14,0 16 8 25 13 SE 1019,3 30 0 0,0
12.10.2018 04:00:00 12,4 8,3 10,2 10,0 12,1 14,0 16 9 28 15 SE 1019,0 30 0 0,0
12.10.2018 03:00:00 12,9 8,2 10,1 10,3 12,3 14,0 16 9 29 15 SE 1018,9 30 0 0,0

tt = temperature
td = dewpoint
tt 5cm = temperature 5cm
tt -5cm = temperature -5cm
tt -20cm = temperature -20cm
tt -100cm = temperature -100cm
ff = wind speed
fx = gusts
dd = wind direction
ppp = reduced air pressure
vv = visibility
sd = sunshine duration
rr = precipitation

Next stations